Train No Train Name From To Distance Stops avg_speed (km/hr)
11123 Barauni - Gwalior Mail Barauni Junction Gwalior 1056 47 40
A Train's "Departure" Station, "Arrival" Station and "Distance" may vary. Although we have verified some of this data from enquiry.indianrail.gov.in
Train No Start Date (yyyy-mm-dd) Status Delay Time Source
11123 2017-01-01 Late 31 hours 05 minutes Source
11123 2017-01-02 Late 19 hours 28 minutes Source
11123 2017-01-10 Late 19 hours 18 minutes Source
11123 2017-01-15 Late 30 hours 56 minutes Source
11123 2017-01-22 Late 15 hours 55 minutes Source
11123 2017-01-28 Late 24 hours 05 minutes Source
11123 2017-01-31 Late 28 hours 13 minutes Source
11123 2017-02-03 Late 24 hours 51 minutes Source
11123 2017-02-06 Late 21 hours 40 minutes Source
11123 2017-02-09 Late 22 hours 10 minutes Source
11123 2017-02-18 Late 15 hours 37 minutes Source
11123 2017-02-21 Late 33 hours 55 minutes Source
11123 2017-02-22 Late 54 hours 10 minutes Source
11123 2017-02-28 Late 28 hours 21 minutes Source
11123 2017-03-08 Late 36 hours 55 minutes Source
11123 2017-03-09 Late 37 hours 35 minutes Source
11123 2017-03-11 Late 20 hours 11 minutes Source
11123 2017-03-13 Late 24 hours 32 minutes Source
11123 2017-03-14 Late 30 hours 00 minutes Source
11123 2017-03-18 Late 19 hours 29 minutes Source
11123 2017-03-28 Late 53 hours 58 minutes Source
11123 2017-03-29 Late 44 hours 54 minutes Source
11123 2017-03-30 Late 20 hours 55 minutes Source
11123 2017-04-02 Late 44 hours 23 minutes Source
11123 2017-04-12 Late 30 hours 46 minutes Source
11123 2017-04-13 Late 27 hours 03 minutes Source
11123 2017-04-21 Late 33 hours 25 minutes Source
11123 2017-04-23 Late 29 hours 55 minutes Source
11123 2017-04-25 Late 30 hours 17 minutes Source
11123 2017-04-26 Late 15 hours 55 minutes Source
11123 2017-04-28 Late 20 hours 21 minutes Source
Page 1 of 1, showing 31 records out of 31 total